Wind_Speed
13 17 17 16 16 16 17 18 18 19 19 19 19 19 19 19 17 17 17 15 14 11 11 11 11 10 8 7 7 6 6 6 6 7 7 8 8 8 9 10 11 12 13
13 14 16 18 18 17 19 22 22 20 19 19 19 20 21 21 20 18 17 17 16 15 14 13 12 11 11 10 10 10 9 8 9 9 9 10 10 11 11 12 13 14 15
16 18 18 18 20 21 22 20 20 19 19 18 17 17 17 17 17 17 17 17 17 17 16 15 14 14 13 13 13 13 13 12 12 12 12 13 13 14 15 14 15 17 18
18 19 20 21 21 21 22 23 23 22 21 21 20 19 20 19 18 19 19 19 18 19 18 18 18 17 16 17 16 17 17 16 16 15 15 15 16 16 17 17 18 19 20
21 21 21 21 21 22 23 24 25 25 24 24 23 23 23 23 23 23 23 23 22 22 22 22 21 21 20 20 20 20 21 20 20 19 19 19 19 20 20 20 20 21 22
22 23 22 22 22 22 22 24 25 26 26 26 26 26 27 27 27 27 27 27 26 26 26 26 26 26 26 25 25 25 25 25 25 24 23 23 23 23 23 23 23 23 23
25 24 25 24 24 24 25 26 27 27 27 26 27 29 29 28 29 29 31 30 31 31 30 30 31 30 31 31 29 29 29 29 29 28 28 27 28 27 27 26 26 25 25
25 26 27 26 25 25 26 25 28 28 27 28 29 29 29 29 30 30 31 32 34 34 34 34 34 33 34 34 33 32 32 33 33 32 32 32 31 31 31 30 28 28 27
24 26 28 28 28 29 29 30 29 30 29 31 31 32 33 33 33 32 34 34 34 32 36 35 34 34 36 36 36 35 34 34 35 36 35 35 34 33 32 31 30 29 28
27 25 26 26 27 28 28 30 31 32 31 31 32 31 33 34 34 35 36 37 37 38 37 34 37 35 35 36 38 37 38 38 38 38 38 38 37 35 34 32 31 31 30
29 29 30 30 32 33 35 35 36 37 37 39 40 40 39 39 38 38 38 38 38 40 40 41 40 38 38 38 37 37 40 42 41 40 40 39 37 36 35 34 33 33 32
36 37 37 38 39 40 41 42 42 44 44 45 45 47 47 47 47 47 46 46 45 44 43 42 42 43 42 42 43 44 46 42 36 41 42 39 38 38 37 36 35 34 34
42 45 46 44 44 43 44 46 47 49 51 51 51 51 52 52 51 50 50 51 52 52 52 51 49 48 47 45 45 45 46 47 43 38 37 41 43 43 39 37 35 35 35
49 49 49 52 54 55 56 57 57 57 56 57 59 60 58 58 58 58 56 55 55 55 56 55 55 54 53 51 49 49 48 47 47 45 43 40 35 41 37 34 37 39 34
53 56 59 60 61 62 62 62 62 63 64 64 64 64 65 64 64 64 63 62 61 60 61 60 59 58 56 57 57 55 53 50 49 48 38 45 40 34 35 36 33 34 31
60 62 64 66 68 70 72 72 70 69 69 69 69 70 71 71 71 71 71 70 69 67 65 65 65 65 63 62 59 59 58 56 54 52 49 48 42 37 36 34 34 34 33
71 74 76 77 78 77 76 75 76 78 79 79 79 78 79 80 81 81 80 78 76 75 75 73 72 70 69 69 65 63 61 59 59 59 55 51 48 42 38 37 36 36 38
78 77 79 81 81 79 81 82 82 84 85 87 89 88 86 86 89 91 90 88 86 84 81 82 80 78 75 74 72 69 67 65 62 61 63 57 51 49 45 43 44 42 43
79 81 83 83 84 86 86 87 88 90 91 94 96 99 95 94 94 95 97 96 95 93 89 87 86 84 82 80 81 78 74 73 70 69 62 65 57 55 51 47 44 48 42
84 86 87 89 90 91 91 92 91 91 92 92 97 99 101 101 101 101 100 101 101 100 94 94 93 92 91 90 88 86 84 81 78 74 70 68 67 60 56 52 52 42 49
91 93 92 90 88 89 90 85 82 87 90 89 95 96 97 99 101 103 102 102 103 105 102 102 104 103 100 100 99 94 91 89 86 81 77 74 71 67 61 54 59 39 42
91 89 89 88 87 88 87 88 91 94 96 97 96 93 86 80 77 80 82 83 92 97 100 103 109 110 108 109 106 104 100 94 95 89 85 79 77 73 68 64 63 61 53
82 81 80 83 87 90 91 92 92 91 83 80 73 67 57 52 51 53 58 61 66 69 78 85 90 102 111 110 108 108 104 101 97 94 88 84 83 79 70 71 67 62 58
80 78 80 81 82 80 77 75 61 45 47 47 46 46 45 43 42 43 45 49 53 51 55 61 65 68 78 85 84 93 101 102 97 94 93 87 87 84 76 69 74 69 64
62 60 61 60 56 52 47 38 39 44 44 40 38 40 40 40 42 42 46 50 49 45 47 51 53 58 60 63 67 74 83 92 98 94 91 89 90 87 82 78 71 71 70
43 40 37 35 31 29 31 33 40 45 42 40 40 41 41 41 42 45 50 53 50 42 41 42 40 42 46 50 51 56 63 76 86 90 92 91 83 89 82 80 76 77 71
Wind_Direction
280 267 268 273 277 279 286 288 279 273 270 268 268 267 267 267 267 271 273 269 261 258 246 236 234 237 234 234 234 233 235 234 246 256 257 259 262 266 270 276 280 281 284
286 280 273 269 273 267 269 268 273 268 265 265 265 266 265 264 264 263 262 258 253 250 246 240 236 233 232 233 234 236 238 245 251 255 263 268 272 275 276 279 283 286 286
284 282 283 282 279 277 278 276 272 271 268 267 266 266 267 264 261 259 256 255 255 255 249 246 242 238 235 234 239 246 249 251 255 257 262 267 269 272 274 276 278 279 279
293 287 285 280 277 275 275 278 276 273 273 272 270 269 267 264 263 265 262 261 260 261 261 257 251 248 245 243 245 250 255 255 257 260 261 263 266 270 271 274 277 278 278
292 288 286 284 283 279 277 274 273 272 269 268 268 266 266 265 264 262 263 264 262 261 262 264 261 257 253 253 253 253 254 254 256 259 262 265 267 271 275 279 281 285 286
288 284 284 281 279 280 278 275 275 275 273 271 268 265 262 260 258 257 258 259 261 261 261 260 262 261 260 257 258 258 256 254 254 255 258 261 264 266 271 276 280 284 286
285 283 279 277 275 273 271 272 273 273 272 271 269 268 268 266 265 263 262 260 258 257 258 259 261 260 259 259 256 257 259 256 254 253 255 257 260 263 268 272 275 277 281
283 282 277 275 274 275 275 273 274 273 273 272 272 271 271 269 267 266 263 261 260 259 257 256 256 257 258 259 259 258 256 257 254 252 251 253 255 259 263 266 269 273 275
288 284 283 280 278 278 278 279 276 277 275 274 272 273 272 271 270 268 266 264 265 259 255 256 256 256 257 258 258 256 255 255 256 254 252 252 253 256 260 264 266 268 271
284 283 284 284 283 282 280 281 280 279 277 275 274 273 273 272 271 271 270 269 267 267 268 263 253 253 255 259 260 260 258 254 253 253 253 252 253 255 257 260 262 265 267
280 278 278 277 276 276 276 276 275 274 274 273 273 272 271 269 267 267 267 268 268 268 267 266 266 262 257 257 257 260 261 257 253 252 252 253 254 257 258 260 262 265 267
279 278 276 275 273 273 273 272 271 268 267 268 268 267 267 266 266 266 265 265 265 266 266 267 268 267 263 259 260 260 264 268 265 254 246 252 255 257 260 262 264 265 265
280 281 280 279 276 273 272 271 272 271 269 269 270 269 265 265 262 261 261 263 264 262 263 265 265 265 266 266 264 262 263 266 268 266 265 257 254 255 256 259 264 263 265
282 280 277 279 280 277 275 277 278 278 275 273 273 271 269 267 263 263 261 262 261 261 260 262 263 263 262 262 264 267 266 265 266 265 266 269 267 259 257 260 265 263 261
279 276 276 276 276 277 278 278 278 278 277 278 278 277 274 271 268 264 263 265 264 262 261 261 260 259 260 263 262 262 263 264 265 267 268 266 270 260 259 260 262 258 256
272 273 275 277 278 277 276 275 275 277 277 275 275 275 276 274 271 269 267 266 266 265 263 262 259 258 257 260 261 262 261 260 260 261 261 266 265 264 262 254 254 259 261
278 276 276 276 276 275 275 277 277 276 277 277 275 274 273 272 272 271 269 266 265 265 265 265 265 263 258 257 259 259 262 261 260 259 258 263 264 262 257 246 247 257 263
289 286 283 280 279 279 277 276 276 276 276 277 277 276 274 272 271 271 271 269 269 268 266 266 266 263 263 264 261 255 257 258 258 261 262 254 257 259 255 250 255 261 262
287 285 284 282 280 279 277 277 275 274 274 275 274 274 273 272 271 269 269 269 269 267 265 264 263 263 262 262 261 259 258 258 259 258 260 256 249 252 255 254 257 258 250
287 285 284 284 284 282 283 283 281 279 277 278 276 275 276 276 274 271 269 268 266 264 263 263 263 262 261 262 261 259 258 258 258 259 257 253 250 244 249 252 253 240 251
293 293 292 293 292 292 293 292 290 286 285 283 284 284 283 283 283 281 279 277 273 270 269 266 265 263 262 261 260 260 259 258 257 258 256 250 248 244 241 247 247 235 236
296 296 294 292 289 289 289 287 287 285 285 285 285 283 282 281 281 280 279 277 275 272 271 270 268 265 264 264 261 259 257 256 255 254 254 250 245 243 239 239 246 248 247
293 290 288 285 284 284 283 283 284 285 287 286 284 282 278 276 275 275 275 274 272 271 269 268 266 265 264 262 259 258 256 253 250 250 248 246 243 239 238 236 241 245 246
292 291 291 288 287 286 285 284 287 286 287 282 282 280 276 276 277 277 277 277 276 275 270 266 262 259 257 255 252 252 252 250 245 242 243 242 239 238 234 235 236 241 241
306 302 299 298 297 294 291 292 287 292 293 288 285 282 276 275 277 279 284 283 280 276 269 266 260 252 251 249 246 243 242 240 240 238 235 235 235 235 234 232 232 234 235
326 316 315 316 313 307 300 297 295 293 293 292 288 285 281 279 280 283 284 284 282 277 268 267 267 260 255 250 247 244 241 238 232 230 229 227 230 231 232 230 232 233 233
Height
5870 5868 5867 5865 5863 5862 5860 5859 5858 5858 5857 5857 5856 5855 5855 5855 5854 5854 5854 5854 5854 5854 5854 5854 5855 5855 5855 5856 5856 5857 5858 5859 5859 5860 5861 5862 5862 5863 5863 5864 5864 5864 5864
5866 5864 5863 5861 5859 5858 5857 5856 5854 5854 5853 5852 5851 5851 5851 5851 5850 5849 5849 5850 5850 5850 5851 5851 5851 5852 5852 5852 5853 5854 5854 5856 5857 5857 5858 5859 5859 5860 5860 5860 5860 5861 5861
5864 5862 5862 5860 5859 5857 5856 5853 5852 5851 5850 5849 5847 5847 5847 5846 5846 5846 5846 5846 5846 5846 5846 5847 5848 5848 5848 5849 5850 5851 5852 5852 5853 5854 5854 5856 5857 5857 5857 5857 5857 5858 5858
5861 5859 5858 5856 5855 5853 5852 5851 5849 5848 5847 5845 5845 5843 5843 5843 5842 5842 5842 5842 5841 5843 5842 5842 5843 5845 5845 5845 5846 5847 5848 5849 5850 5850 5851 5852 5853 5853 5853 5853 5853 5853 5854
5858 5857 5855 5853 5850 5849 5848 5846 5845 5844 5842 5842 5841 5840 5840 5839 5838 5837 5837 5838 5837 5838 5838 5839 5839 5840 5841 5842 5842 5843 5844 5844 5846 5846 5847 5847 5847 5848 5849 5848 5848 5848 5848
5852 5851 5850 5848 5847 5845 5843 5841 5840 5838 5838 5836 5836 5835 5833 5833 5832 5831 5831 5832 5831 5832 5833 5833 5834 5834 5836 5838 5838 5838 5839 5839 5840 5841 5841 5842 5843 5843 5843 5843 5843 5843 5844
5849 5845 5843 5841 5840 5838 5837 5835 5833 5832 5832 5830 5829 5829 5828 5826 5826 5825 5826 5826 5825 5825 5826 5828 5829 5828 5829 5830 5832 5834 5833 5834 5835 5835 5835 5836 5837 5837 5838 5838 5839 5839 5839
5845 5842 5839 5837 5834 5833 5831 5830 5828 5826 5825 5824 5824 5822 5821 5820 5820 5820 5819 5820 5819 5820 5820 5821 5822 5822 5822 5823 5824 5826 5828 5828 5828 5829 5829 5830 5830 5831 5833 5833 5833 5833 5834
5840 5838 5834 5832 5830 5827 5825 5823 5821 5819 5818 5818 5817 5816 5814 5813 5813 5813 5813 5812 5811 5810 5812 5813 5814 5814 5815 5815 5816 5817 5819 5819 5820 5821 5822 5823 5823 5825 5826 5826 5827 5827 5828
5835 5832 5829 5827 5824 5822 5819 5817 5814 5812 5810 5809 5808 5807 5806 5805 5805 5805 5805 5804 5804 5803 5803 5803 5804 5805 5806 5808 5809 5809 5810 5811 5812 5812 5813 5814 5815 5817 5818 5819 5819 5821 5821
5827 5824 5821 5819 5816 5813 5810 5807 5805 5803 5801 5799 5798 5797 5796 5795 5795 5795 5794 5794 5794 5795 5795 5796 5796 5796 5796 5799 5798 5797 5798 5801 5803 5804 5804 5805 5807 5808 5810 5811 5812 5813 5815
5819 5815 5812 5809 5806 5802 5799 5796 5794 5792 5790 5788 5786 5784 5783 5782 5783 5783 5783 5783 5784 5784 5785 5785 5786 5788 5789 5789 5789 5790 5789 5789 5792 5792 5795 5797 5799 5800 5801 5803 5804 5806 5807
5812 5807 5802 5797 5793 5790 5787 5784 5781 5778 5776 5774 5773 5771 5770 5768 5767 5767 5768 5770 5770 5772 5772 5773 5774 5776 5777 5779 5780 5781 5781 5781 5784 5786 5788 5788 5790 5792 5792 5794 5796 5797 5800
5801 5795 5790 5785 5780 5776 5772 5769 5765 5762 5759 5757 5755 5753 5753 5753 5753 5753 5753 5754 5756 5756 5758 5760 5762 5763 5765 5766 5768 5770 5771 5773 5774 5776 5778 5781 5783 5785 5786 5787 5787 5789 5792
5786 5779 5774 5769 5764 5760 5755 5751 5747 5743 5740 5738 5735 5734 5734 5734 5733 5734 5735 5736 5738 5741 5743 5744 5746 5749 5752 5754 5756 5758 5760 5762 5764 5767 5771 5773 5775 5777 5778 5779 5780 5782 5784
5769 5763 5758 5753 5748 5742 5736 5731 5728 5724 5720 5716 5713 5712 5712 5712 5713 5713 5714 5715 5718 5720 5723 5727 5729 5732 5735 5739 5742 5744 5748 5750 5753 5755 5761 5764 5767 5769 5770 5772 5773 5775 5778
5754 5747 5741 5736 5729 5723 5717 5710 5705 5700 5696 5693 5691 5688 5687 5686 5687 5689 5691 5692 5695 5698 5701 5705 5709 5713 5718 5720 5725 5728 5732 5736 5740 5743 5747 5752 5757 5760 5761 5762 5764 5768 5770
5733 5726 5719 5713 5708 5702 5694 5688 5683 5678 5673 5667 5665 5662 5660 5659 5658 5661 5664 5667 5669 5672 5676 5680 5685 5691 5696 5701 5706 5710 5715 5720 5726 5730 5734 5740 5747 5750 5753 5754 5756 5758 5761
5708 5700 5693 5685 5678 5672 5666 5660 5655 5651 5645 5640 5637 5635 5632 5631 5631 5633 5636 5639 5640 5644 5647 5652 5658 5664 5672 5676 5682 5690 5697 5701 5707 5713 5720 5726 5733 5738 5742 5746 5746 5748 5751
5683 5675 5665 5657 5649 5643 5635 5629 5623 5620 5615 5609 5606 5604 5602 5600 5601 5603 5606 5607 5611 5616 5619 5623 5629 5635 5643 5650 5656 5666 5674 5682 5688 5695 5702 5709 5717 5725 5729 5733 5734 5736 5739
5657 5647 5639 5631 5623 5613 5603 5598 5595 5590 5589 5587 5583 5578 5576 5572 5573 5571 5571 5574 5576 5579 5583 5589 5597 5604 5615 5619 5628 5638 5648 5659 5667 5675 5683 5692 5700 5708 5714 5719 5720 5717 5729
5633 5624 5615 5606 5599 5591 5582 5575 5566 5560 5558 5555 5552 5548 5544 5540 5540 5539 5540 5540 5543 5545 5550 5555 5559 5568 5581 5587 5596 5606 5620 5631 5642 5652 5661 5672 5683 5689 5698 5703 5704 5711 5718
5610 5601 5591 5582 5573 5565 5558 5551 5547 5542 5536 5533 5530 5525 5524 5522 5522 5520 5520 5517 5517 5518 5521 5524 5530 5535 5546 5556 5560 5572 5586 5599 5612 5627 5639 5650 5662 5669 5679 5686 5690 5695 5704
5582 5573 5564 5555 5549 5541 5534 5527 5525 5522 5518 5518 5513 5511 5509 5507 5505 5505 5504 5502 5499 5500 5500 5502 5506 5509 5511 5522 5527 5537 5548 5567 5581 5597 5612 5627 5640 5650 5659 5668 5676 5683 5691
5562 5552 5543 5535 5528 5522 5517 5513 5511 5508 5505 5502 5500 5497 5495 5494 5491 5491 5489 5485 5485 5485 5485 5485 5486 5488 5490 5496 5503 5509 5516 5530 5550 5567 5587 5603 5616 5630 5640 5649 5659 5666 5675
5553 5543 5535 5527 5521 5514 5510 5507 5502 5496 5492 5489 5488 5485 5483 5481 5480 5478 5474 5471 5470 5469 5469 5470 5471 5472 5475 5478 5485 5491 5496 5505 5521 5535 5556 5576 5593 5608 5620 5631 5640 5649 5659